[TLELIST] Archives

 

[list_settings.list_name] Current TLEs

October 1st 2019 PST

HST 1 20580U 90037B 19274.17243512 .00000492 00000-0 19022-4 0 9995 2 20580 28.4688 241.0414 0002787 164.3077 322.8844 15.09273553416698 ISS (ZARYA) 1 25544U 98067A 19274.26947324 .00001984 00000-0 42588-4 0 9993 2 25544 51.6435 195.1924 0007506 102.6633 46.6366 15.50127027191716 CXO 1 25867U 99040B 19275.00555977 .00000535 00000-0 00000+0 0 9994 2 25867 66.3371 273.2773 7347196 232.0448 0.5305 0.37806760 19210 ____________________________________________________________________ These 2-Line ...Continue Reading

[list_settings.list_name] Current TLEs

September 30th 2019 PST

HST 1 20580U 90037B 19272.38856584 .00000458 00000-0 16933-4 0 9995 2 20580 28.4689 252.8384 0002855 145.9024 349.6352 15.09272317416427 ISS (ZARYA) 1 25544U 98067A 19273.30033895 .00001484 00000-0 33885-4 0 9991 2 25544 51.6429 199.9962 0007482 99.1969 38.3194 15.50120282191564 CXO 1 25867U 99040B 19275.00555977 .00000535 00000-0 00000+0 0 9994 2 25867 66.3371 273.2773 7347196 232.0448 0.5305 0.37806760 19210 ____________________________________________________________________ These 2-Line ...Continue Reading

[list_settings.list_name] Current TLEs

September 29th 2019 PST

HST 1 20580U 90037B 19271.36846014 .00000499 00000-0 19431-4 0 9990 2 20580 28.4691 259.5844 0002892 135.5694 206.3625 15.09272008416265 ISS (ZARYA) 1 25544U 98067A 19272.33423169 .00000879 00000-0 23361-4 0 9995 2 25544 51.6428 204.7835 0007475 96.2374 46.4235 15.50114425191419 CXO 1 25867U 99040B 19275.00555977 .00000535 00000-0 00000+0 0 9994 2 25867 66.3371 273.2773 7347196 232.0448 0.5305 0.37806760 19210 ____________________________________________________________________ These 2-Line ...Continue Reading

[list_settings.list_name] Current TLEs

September 28th 2019 PST

HST 1 20580U 90037B 19270.37501273 +.00000477 +00000-0 +18112-4 0 9996 2 20580 028.4691 266.1540 0002920 125.5183 207.9409 15.09271362416029 ISS (ZARYA) 1 25544U 98067A 19271.36779235 .00000220 00000-0 11876-4 0 9993 2 25544 51.6446 209.5610 0007488 91.0549 54.9195 15.50109927191267 CXO 1 25867U 99040B 19272.35973335 .00000619 00000-0 00000+0 0 9994 2 25867 66.3924 273.3684 7347262 232.0798 0.3581 0.37813245 19207 ____________________________________________________________________ These 2-Line ...Continue Reading

[list_settings.list_name] Current TLEs

September 27th 2019 PST

HST 1 20580U 90037B 19270.23319969 .00000478 00000-0 18154-4 0 9997 2 20580 28.4692 267.0918 0002921 124.1089 157.2998 15.09271295416092 ISS (ZARYA) 1 25544U 98067A 19270.33560760 -.00000196 00000-0 46223-5 0 9998 2 25544 51.6426 214.6804 0007557 89.9516 52.2174 15.50106592191100 CXO 1 25867U 99040B 19272.35973335 .00000619 00000-0 00000+0 0 9994 2 25867 66.3924 273.3684 7347262 232.0798 0.3581 0.37813245 19207 ____________________________________________________________________ These 2-Line ...Continue Reading

[list_settings.list_name] Current TLEs

September 26th 2019 PST

HST 1 20580U 90037B 19268.48708029 .00000428 00000-0 15114-4 0 9998 2 20580 28.4693 278.6389 0002943 106.5104 28.7762 15.09270278415831 ISS (ZARYA) 1 25544U 98067A 19269.36141008 -.00000048 00000-0 71966-5 0 9997 2 25544 51.6422 219.5079 0007532 86.6706 15.5136 15.50106689190951 CXO 1 25867U 99040B 19272.35973335 .00000619 00000-0 00000+0 0 9994 2 25867 66.3924 273.3684 7347262 232.0798 0.3581 0.37813245 19207 ____________________________________________________________________ These 2-Line ...Continue Reading

[list_settings.list_name] Current TLEs

September 25th 2019 PST

HST 1 20580U 90037B 19267.21922959 .00000398 00000-0 13262-4 0 9996 2 20580 28.4694 287.0231 0002956 94.1960 338.7339 15.09269561415633 ISS (ZARYA) 1 25544U 98067A 19268.33979376 .00000983 00000-0 25179-4 0 9991 2 25544 51.6429 224.5706 0007545 83.4716 73.9411 15.50108787190798 CXO 1 25867U 99040B 19269.71423878 .00000700 00000-0 00000+0 0 9993 2 25867 66.4515 273.4691 7344334 232.0889 0.3171 0.37809502 19195 ____________________________________________________________________ These 2-Line ...Continue Reading

[list_settings.list_name] Current TLEs

September 24th 2019 PST

HST 1 20580U 90037B 19267.21922959 .00000398 00000-0 13262-4 0 9996 2 20580 28.4694 287.0231 0002956 94.1960 338.7339 15.09269561415633 ISS (ZARYA) 1 25544U 98067A 19267.37094718 .00000845 00000-0 22761-4 0 9993 2 25544 51.6437 229.3716 0007541 80.1138 67.1879 15.50105611190649 CXO 1 25867U 99040B 19269.71423878 .00000700 00000-0 00000+0 0 9993 2 25867 66.4515 273.4691 7344334 232.0889 0.3171 0.37809502 19195 ____________________________________________________________________ These 2-Line ...Continue Reading

[list_settings.list_name] Current TLEs

September 23rd 2019 PST

HST 1 20580U 90037B 19265.51390535 .00000391 00000-0 12837-4 0 9996 2 20580 28.4696 298.3005 0002956 77.1755 71.7353 15.09268838415380 ISS (ZARYA) 1 25544U 98067A 19266.40341235 .00000494 00000-0 16655-4 0 9990 2 25544 51.6432 234.1648 0007495 77.2154 67.3112 15.50101876190499 CXO 1 25867U 99040B 19267.07094132 .00000720 00000-0 00000+0 0 9999 2 25867 66.4914 273.5436 7338763 232.1037 0.5651 0.37805071 19182 ____________________________________________________________________ These 2-Line ...Continue Reading

[list_settings.list_name] Current TLEs

September 22nd 2019 PST

HST 1 20580U 90037B 19264.24123087 .00000393 00000-0 12974-4 0 9995 2 20580 28.4698 306.7166 0002935 64.4283 355.8712 15.09268348415185 ISS (ZARYA) 1 25544U 98067A 19265.37559469 .00000383 00000-0 14721-4 0 9994 2 25544 51.6441 239.2602 0007509 73.9062 91.2321 15.50099443190339 CXO 1 25867U 99040B 19267.07094132 .00000720 00000-0 00000+0 0 9999 2 25867 66.4914 273.5436 7338763 232.1037 0.5651 0.37805071 19182 ____________________________________________________________________ These 2-Line ...Continue Reading
  • This mailing list is a public mailing list - anyone may join or leave, at any time.
  • This mailing list is announce-only.

International Space Station (ISS) / Hubble Space Telescope (HST) / Chandra X-Ray Observatory Orbital Data via EMAIL

Privacy Policy:

Private list